Weather History for KABI - November, 2012

Change the Weather History Date:

Tuesday, November 27, 2012

  Actual Average Record
Temperature  
Mean Temperature 44 °F 50 °F  
Max Temperature 55 °F 62 °F 88 °F (1949)
Min Temperature 32 °F 38 °F 13 °F (1887)
Degree Days  
Heating Degree Days 21 15  
Month to date heating degree days 192 281  
Since 1 July heating degree days 326 385  
Cooling Degree Days 0 0  
Month to date cooling degree days 37 15  
Year to date cooling degree days 3033 2404  
Moisture  
Dew Point 27 °F    
Average Humidity 54    
Maximum Humidity 70    
Minimum Humidity 38    
Precipitation  
Precipitation 0.00 in 0.04 in 1.11 in (1908)
Month to date precipitation 0.29 1.30  
Year to date precipitation 23.16 23.48  
Sea Level Pressure  
Sea Level Pressure 30.37 in    
Wind  
Wind Speed 8 mph (NNW)    
Max Wind Speed 17 mph    
Max Gust Speed 21 mph    
Visibility 10 miles    
Events      
T = Trace of Precipitation, MM = Missing Value Source: NWS Daily Summary

Daily Weather History Graph

Daily Weather History Graph

Search for Another Location

Airport or City:

Trip Planner

Search our weather history database for the weather conditions in past years. The results will help you decide how hot, cold, wet, or windy it might be!

Date:

Astronomy

Nov. 27, 2012 Rise Set
Actual Time 7:19 AM CST 5:33 PM CST
Civil Twilight 6:52 AM CST 6:00 PM CST
Nautical Twilight 6:22 AM CST 6:30 PM CST
Astronomical Twilight 5:52 AM CST 7:00 PM CST
Moon 5:05 PM CST (11/27) 6:27 AM CST (11/27)
Length of Visible Light 11h 07m
Length of Day
10h 14m
Waxing Gibbous, 99% of the Moon is Illuminated
Nov 27
Waxing Gibbous
Nov 28
Full
Dec 6
Last Quarter
Dec 13
New
Dec 19
First Quarter

Hourly Weather History & Observations

Time (CST) Temp. Windchill Dew Point Humidity Pressure Visibility Wind Dir Wind Speed Gust Speed Precip Events Conditions
12:52 AM 41.0 °F 34.3 °F 21.9 °F 47% 30.34 in 10.0 mi North 11.5 mph - N/A   Clear
1:52 AM 39.0 °F 32.8 °F 21.0 °F 49% 30.35 in 10.0 mi North 9.2 mph - N/A   Clear
2:52 AM 37.0 °F 29.3 °F 21.9 °F 54% 30.36 in 10.0 mi NNW 11.5 mph - N/A   Clear
3:52 AM 36.0 °F 27.1 °F 23.0 °F 59% 30.38 in 10.0 mi North 13.8 mph - N/A   Clear
4:52 AM 35.1 °F 26.4 °F 23.0 °F 61% 30.38 in 10.0 mi NNW 12.7 mph - N/A   Clear
5:52 AM 34.0 °F 26.6 °F 23.0 °F 64% 30.39 in 10.0 mi NNW 9.2 mph - N/A   Clear
6:52 AM 32.0 °F 24.2 °F 21.9 °F 66% 30.42 in 10.0 mi NNW 9.2 mph - N/A   Clear
7:52 AM 33.1 °F 23.9 °F 23.0 °F 66% 30.43 in 10.0 mi North 12.7 mph - N/A   Clear
8:52 AM 35.1 °F 26.9 °F 24.1 °F 64% 30.45 in 10.0 mi North 11.5 mph - N/A   Clear
9:52 AM 39.0 °F 31.4 °F 25.0 °F 57% 30.48 in 10.0 mi North 12.7 mph - N/A   Clear
10:52 AM 42.1 °F 36.1 °F 26.1 °F 53% 30.46 in 10.0 mi North 10.4 mph - N/A   Clear
11:52 AM 45.0 °F 40.6 °F 27.0 °F 49% 30.43 in 10.0 mi NW 8.1 mph - N/A   Clear
12:52 PM 48.9 °F - 28.0 °F 44% 30.40 in 10.0 mi North 8.1 mph - N/A   Clear
1:52 PM 51.1 °F - 28.0 °F 41% 30.36 in 10.0 mi NW 5.8 mph - N/A   Clear
2:52 PM 54.0 °F - 28.9 °F 38% 30.33 in 10.0 mi NW 3.5 mph - N/A   Clear
3:52 PM 53.1 °F - 28.9 °F 40% 30.32 in 10.0 mi Calm Calm - N/A   Clear
4:52 PM 53.1 °F - 28.9 °F 40% 30.31 in 10.0 mi Calm Calm - N/A   Clear
5:52 PM 50.0 °F - 30.0 °F 46% 30.32 in 10.0 mi SE 3.5 mph - N/A   Clear
6:52 PM 46.9 °F - 30.0 °F 52% 30.32 in 10.0 mi SE 4.6 mph - N/A   Clear
7:52 PM 41.0 °F 36.4 °F 30.0 °F 65% 30.34 in 10.0 mi South 6.9 mph - N/A   Clear
8:52 PM 41.0 °F 35.8 °F 30.0 °F 65% 30.33 in 10.0 mi SSE 8.1 mph - N/A   Clear
9:52 PM 41.0 °F 35.8 °F 30.9 °F 67% 30.32 in 10.0 mi South 8.1 mph - N/A   Clear
10:52 PM 39.9 °F 34.5 °F 30.0 °F 68% 30.31 in 10.0 mi SSE 8.1 mph - N/A   Clear
11:52 PM 42.1 °F 39.2 °F 30.0 °F 62% 30.30 in 10.0 mi SSW 4.6 mph - N/A   Clear